Welcome to the New NWS' Forecast!
Most changes are behind the scenes, but click here for differences you might notice.

Regional Weather Roundup (RWR)

Issued by Gray - Portland, ME (GYX)

                            
928 
ASUS41 KGYX 200810
RWRGYX
WEATHER ROUNDUP FOR MAINE AND NEW HAMPSHIRE
NATIONAL WEATHER SERVICE GRAY ME
400 AM EDT MON AUG 20 2018

MEZ002-005-006-010-012-015-018-020-021-024-026-027-029-200900-
MAINE
  
CITY           SKY/WX    TMP DP  RH WIND       PRES   REMARKS
PORTLAND       FAIR      61  58  90 CALM      30.15F                  
SANFORD        FAIR      61  59  93 CALM      30.15F                  
BAR HARBOR     FAIR      59  57  93 NW5       30.17S                  
WISCASSET      FAIR      57  56  96 CALM      30.16F                  
ROCKLAND       FAIR      62  59  90 VRB3      30.15S                  
FRYEBURG       FAIR      53  52  96 CALM      30.18S                  
LEWISTONAUBURN FAIR      57  57 100 CALM      30.16S                  
AUGUSTA        FAIR      59  57  93 NW3       30.17R                  
WATERVILLE     FAIR      56  55  97 N3        30.15S                  
BANGOR         FAIR      58  56  93 N5        30.17S                  
GREENVILLE     NOT AVBL                                               
MILLINOCKET    FAIR      53  50  89 CALM      30.21R                  
HOULTON        MOCLDY    48  48 100 CALM      30.20R FOG              
PRESQUE ISLE   FAIR      48  47  96 CALM      30.22R                  
FRENCHVILLE    FAIR      58  49  72 SE6       30.21S                  
CARIBOU        FAIR      52  49  89 N6        30.21R                  
$$

NHZ002-005-008-009-011-012-014-200900-
NEW HAMPSHIRE
  
CITY           SKY/WX    TMP DP  RH WIND       PRES   REMARKS
PORTSMOUTH     CLOUDY    64  60  87 NE3       30.12S                  
ROCHESTER      CLOUDY    62  60  93 NW5       30.15R                  
MANCHESTER     CLOUDY    65  60  84 NE6       30.12S                  
CONCORD        FAIR      60  58  92 NW6       30.15S                  
LACONIA        FAIR      59  57  93 CALM      30.17R                  
PLYMOUTH       FOG       57  56  96 CALM      30.17S VSB 1/4          
BERLIN         FOG       51  51 100 CALM      30.20R VSB 1/4          
WHITEFIELD     FAIR      47  45  93 CALM      30.20R                  
JAFFREY        CLOUDY    60  59  96 CALM      30.16F                  
KEENE          FAIR     N/A N/A N/A CALM      30.16R                  
LEBANON        CLOUDY    59  56  89 CALM      30.17R FOG              
MT WASHINGTON  PTCLDY    46  12  25 N6          N/A                   
$$

VTZ005-007-008-200900-
VERMONT
  
CITY           SKY/WX    TMP DP  RH WIND       PRES   REMARKS
ST JOHNSBURY     N/A     55  55 100 MISG      30.17R                  
MONTPELIER     MOCLDY    56  56 100 CALM      30.22R                  
BURLINGTON     FAIR      63  57  81 S6        30.15R                  
$$

MAZ007-012-024-CTZ003-RIZ002-NYZ038-NYZ072-200900-
SOUTHERN NEW ENGLAND AND NY
  
CITY           SKY/WX    TMP DP  RH WIND       PRES   REMARKS
BOSTON         CLOUDY    68  63  84 N10       30.11S                  
WORCESTER      CLOUDY    60  60 100 N8        30.13S FOG              
NANTUCKET      LGT RAIN  66  66 100 NE9       30.03S FOG              
PROVIDENCE     CLOUDY    67  64  90 NE12      30.10R                  
HARTFORD       MOCLDY    65  60  84 N6        30.11S                  
ALBANY         FAIR      60  56  86 N3        30.15R                  
NEW YORK CITY  CLOUDY    69  60  73 N9        30.08S                  
$$

ANZ081-ANZ082-ANZ150-NHZ014-MEZ023>029-200900-
COASTAL MARINE OBSERVATIONS
  
STATION/POSITION TIME  TEMP    WIND        PRES    WAVE
                       AIR SEA DIR/SP/G            HT/PER
                 (UTC) (F)     (DEG/KT/KT) (MB)    (FT/S)
MOUNT DESERT ROC 0800   56      20/ 12/ 13 1020.9R
MATINICUS ROCK   0700   59      50/ 14/ 15 1020.2R
ISLE OF SHOALS   0700   63      10/ 13/ 15 1019.6F
JEFFREYS LEDGE   0736      68                N/A     4/ 6
$$

.............KEY..............
   WCI - WIND CHILL
   TC  - TEMPERATURE IN CELSIUS
   VSB - VISIBILITY IN MILES
   HX  - HEAT INDEX
   FAIR- INDICATES FEW OR NO CLOUDS BELOW 12,000 FT, WITH NO 
         SIGNIFICANT WEATHER AND/OR OBSTRUCTIONS TO VISIBILITY.